If you wish to contribute or participate in the discussions about articles you are invited to join SKYbrary as a registered user

 Actions

El Embrujo Airport

From SKYbrary Wiki

SKPV
Airport
ICAO: SKPV – IATA: PVA
Summary
Name El Embrujo Airport
Region South America and Caribbean
Territory Colombia CO.gif
Location Providencia, Archipelago of San Andres, Providencia and Santa Catalina
Serving Providencia
Elevation 8.839 m
29 ft8.839 m
Coordinates 13° 21' 31.82" N, 81° 21' 32.97" W
Runways
Designator Length Width Surface ROPS
17/35 1168 m3,832.021 ft
15 m49.213 ft
ASP /


METAR
Observation SKPV 112000Z 08010KT 9999 FEW018 OVC200 29/25 A2988
Station Providencia Isla / El Embrujo
Date/Time 11 December 2019 20:00:00
Wind direction 80°
Wind speed 10 kts
Lowest cloud amount few clouds
Temperature 29°C
Dew point 25°C
Humidity 79%
QNH hPa
Weather condition n/a

El Embrujo Airport is an airport serving Providencia Island, Colombia.

Climatology

Tropical monsoon climate (Köppen climate classification Am)

Maps

Terrain

Loading map...

Airport Layout

Loading map...


Accidents & Serious Incidents at or in vicinity of SKPV

None on SKYbrary